Tracking 19146 objects as of 24-Apr-2018
HD Live streaming from Space Station
objects crossing your sky now

FENGYUN 1C DEB

Track FENGYUN 1C DEB now!
10-day predictions


NORAD ID: 30243
Int'l Code: 1999-025XC
Perigee: 856.3 km
Apogee: 877.8 km
Inclination: 98.9 °
Period: 102.1 minutes
Semi major axis: 7238 km
RCS: 0.035 m2 (small)
Launch date: May 10, 1999
Source: People's Republic of China (PRC)
Launch site: Taiyaun Space Center, China (TSC)

Note: This is SATELLITE DEBRIS
aabbcc
Your satellite tracking list
Your tracking list is empty




NASA's NSSDC Master Catalog

Two Line Element Set (TLE):
1 30243U 99025XC  18113.63412152 +.00000041 +00000-0 +48670-4 0  9999
2 30243 098.9447 143.9224 0014817 095.9911 024.2670 14.09835792579397
Source of the keplerian elements: AFSPC